STARLINK-30395, 57812

Orbit data source: Space-Track

STARLINK-30395, 57812 is a payload satellite owned by SpaceX/Seattle (US) in LEO that was launched on Sat, 09 Sep 2023 UTC via an FALCON 9 launch vehicle from the Air Force Eastern Test Range (AFETR). Payload-class satellites include a variety of spacecraft equipped with specific instruments for various scientific and technological missions. These include communications satellites like Starlink; space stations such as the ISS; scientific satellites like the Hubble; Earth observation satellites from companies like Planet Labs, Umbra, and HawkEye 360; GPS; miniature CubeSats for education and research; and military/defense satellites.

Loading next visibility...
Identifier
57812, 2023-138E
Orbit
LEO
Country
Flag of USUS
Related business
Manufacturer
SpaceX/Seattle
Mission
Operational Commercial Communications
Bus & Motor
STARLINK V2M, Unknown motor
Mass
730 kg wet, ~700 kg dry
Launch date (UTC)
2023-09-09 (3 years ago)
Launch vehicle
FALCON 9
Launch site
Air Force Eastern Test Range (AFETR)
Object type
Payload
Rocket body
Debris
Shape & HBR
Box + 2 Pan, 17.7 m
Radar Cross Section
33.884 m², Large (>1 m²)

Expand to show TLE details & history
Last TLE update: 2 days ago

TLE from 2 days ago
0 STARLINK-30395
1 57812U 23138E   26170.98961648  .00001108  00000-0  49806-4 0  9998
2 57812  43.0063  16.4543 0002094 274.1736  85.8876 15.27580185154384
Epoch: 2026-06-19T23:45Z
TLE epoch observation values (Epoch: 2026-06-19T23:45:02.863Z)
Latitude
-0.00006°
Longitude
111.98163°
Altitude
482.722 km
Speed
7.626 km/s
True Right ascension
01h 05m 49s
True Declination
0° 00' 00"
Sunlit
Object was in daylight at epoch
Visualization orbit readout
Latitude
Unknown
Longitude
Unknown
Altitude
Unknown
Speed
Unknown
Apparent Right ascension
Unknown
Apparent Declination
Unknown
Sunlit
N/A
Visualization observer readout
Local Sidereal Time
21:33:42
Azimuth
Unknown
Elevation
Unknown
Doppler factor
Unknown
Orbital elements
Apogee altitude
486.43 km
Perigee altitude
483.556 km
Semi-major axis
6,863.13 km
Eccentricity
0.00021
Inclination
43.0063°
RAAN
16.4543°
Arg. of periapsis
274.1736°
True anomaly
85.91153°
Mean anomaly
85.8876°
Eccentric anomaly
85.89957°
Mean motion
3.81733 °/min
Orbital period
94.31 mins
BSTAR
0.000049806
Loading maneuver chart data...
Computing Atmospheric mass density...
Loading historical data...
Loading historical data...
Loading historical data...
Loading historical data...
Loading historical data...
Loading historical data...
Loading historical data...

Documentation

Showing up to 5 results
|